Find Resurs-P No. 4

NORAD ID: 59371 Int'l Des: 2024-061 Owner: TSSKBP Country: RU operational
LEOCIRCULARRETROGRADESSO

实时位置

正在加载3D地球...

关于 Resurs-P No. 4

正在加载描述...

即将过境

Passes for default location (London). Set your location on the main map for personalized predictions.

高度历史

Loading altitude history...

两行轨道根数

1 59371U 24061A 26104.84014539 .00002297 00000-0 73916-4 0 9995
2 59371 97.2705 53.8773 0001129 121.2092 238.9262 15.33234084114067
Epoch: Apr 14, 2026 • Age: 7 hours

当前状态

高度 469.4 km
速度 7.63 km/s
星下点 30.03°N, 11.13°W
发射日期 Mar 31, 2024
运行时间 2 years
类型 other

技术详情

分类 Payload
质量 6000.00 kg
干质量 5800.00 kg
总质量 6000.00 kg
长度 7.90 m
直径 2.70 m
跨度 13.00 m
形状 Cy+2 pan
制造商 TSSKBP
平台类型 Resurs P
阶段状态 In Orbit
所有者/国家 TSSKBP/RU

Most Searched